Regional Weather Roundup
Issued by NWS Upton, NY

Current Version | Previous Version | Text Only | Print | Product List | Glossary Off
Versions: 1 2 3 4 5 6 7 8 9 10 11 12 13 14 15 16 17 18 19 20 21 22 23 24 25 26 27 28 29 30 31 32 33 34 35 36 37 38 39 40 41 42 43 44 45 46 47 48 49 50
000 ASUS41 KOKX 241708 RWROKX REGIONAL WEATHER ROUNDUP NATIONAL WEATHER SERVICE NEW YORK NY 100 PM EDT SUN MAY 24 2015 NOTE: "FAIR" INDICATES FEW OR NO CLOUDS BELOW 12,000 FEET WITH NO SIGNIFICANT WEATHER AND/OR OBSTRUCTIONS TO VISIBILITY. NYZ071-072-176-178-NJZ106-104-241800- NEW YORK CITY METRO AREA CITY SKY/WX TMP DP RH WIND PRES REMARKS CENTRAL PARK MOSUNNY 78 37 22 W7 30.33F LAGUARDIA APRT PTSUNNY 78 34 20 VRB5 30.30F KENNEDY INTL PTSUNNY 70 51 51 S16 30.33F NEWARK/LIBERTY PTSUNNY 80 37 21 NW7G17 30.30F BRNX BOT. GARD N/A 77 37 24 SW15 30.31S TETERBORO MOSUNNY 77 40 26 S6 30.29F $$ NYZ177-179-078>081-241800- LONG ISLAND NEW YORK CITY SKY/WX TMP DP RH WIND PRES REMARKS FARMINGDALE PTSUNNY 72 51 47 SW15 30.32F ISLIP PTSUNNY 69 51 52 S13 30.31F SHIRLEY PTSUNNY 69 50 50 S13 30.33F WESTHAMPTON PTSUNNY 65 51 60 SW13 30.34F MONTAUK POINT N/A 66 52 60 VRB7 30.32F $$ NYZ052-065-067-241800- HUDSON VALLEY CITY SKY/WX TMP DP RH WIND PRES REMARKS WHITE PLAINS PTSUNNY 75 40 28 VRB5 30.29F NEWBURGH NOT AVBL MONTGOMERY PTSUNNY 76 41 28 SW7 30.28F POUGHKEEPSIE MOSUNNY 77 39 25 SW12 30.27F ALBANY MOSUNNY 80 37 21 W12 30.23F $$ NJZ001-105-106-008-010-013-015-019>022-104-241800- NEW JERSEY CITY SKY/WX TMP DP RH WIND PRES REMARKS NEWARK/LIBERTY PTSUNNY 80 37 21 NW7G17 30.30F TETERBORO MOSUNNY 77 40 26 S6 30.29F CALDWELL MOSUNNY 77 40 26 W10 30.30F MORRISTOWN PTSUNNY 79 41 25 W7 30.31F SOMERVILLE SUNNY 79 38 22 W6 30.29F SUSSEX MOSUNNY 77 40 26 CALM 30.29F ANDOVER N/A 76 42 29 MISG 30.30F TRENTON MOSUNNY 77 49 37 SW7 30.31F MILLVILLE SUNNY 73 54 51 VRB7 30.35F ATLANTIC CITY SUNNY 75 50 41 S15 30.35F WRIGHTSTOWN SUNNY 76 52 43 W7 30.30F TOMS RIVER MOSUNNY N/A N/A N/A W13 30.33S BELMAR MOSUNNY 75 52 43 W8 30.33F $$ PAZ047>061-062-071-241800- EASTERN PENNSYLVANIA CITY SKY/WX TMP DP RH WIND PRES REMARKS PHILADELPHIA PTSUNNY 74 52 46 W9 30.33F ALLENTOWN SUNNY 79 37 22 W8 30.31F SCRANTON SUNNY 77 36 22 VRB7G20 30.29F $$ CTZ002-004>006-009-010-012-RIZ004-006-007-MAZ004-011-015-241800- SOUTHERN NEW ENGLAND IN CT CITY SKY/WX TMP DP RH WIND PRES REMARKS BRADLEY INTL MOSUNNY 80 38 22 SW10G21 30.23F HARTFORD SUNNY 78 40 25 SW14G22 30.25F DANBURY PTSUNNY 74 39 28 W7 30.30F WTRBRY/OXFORD MOSUNNY 73 39 29 SW9G16 30.31F BRIDGEPORT PTSUNNY 72 46 39 SW14 30.30F MERIDEN SUNNY 78 33 19 SW13 30.27F NEW HAVEN PTSUNNY 70 43 37 SW14G23 30.30F CHESTER FAIR 72 41 33 SW9G16 30.30F GROTON SUNNY 65 48 54 SW12 30.28F WILLIMANTIC SUNNY 78 32 18 SW9 30.25F IN RI CITY SKY/WX TMP DP RH WIND PRES REMARKS PROVIDENCE MOSUNNY 80 36 20 W14G21 30.25F BLOCK ISLAND SUNNY 61 48 63 SW22G28 30.32F WESTERLY SUNNY 68 43 40 SW9G22 30.30F IN MA CITY SKY/WX TMP DP RH WIND PRES REMARKS BOSTON SUNNY 80 37 21 SW14G22 30.20F WORCESTER SUNNY 75 35 23 W14G25 30.25F WESTFIELD NOT AVBL PROVINCETOWN SUNNY 70 48 46 SW20G28 30.22F NANTUCKET SUNNY 62 51 67 SW22G29 30.31F $$ ANZ330-335-338-340-345-350-353-355-241800- COASTAL MARINE OBSERVATIONS STATION/POSITION TIME SKY/WX TEMP WIND PRES VSBY WAVE AIR SEA DIR/SP/G HT/PER (UTC) (F) (DEG/KT/KT) (MB) (MI) (FT/S) NY HARB ENTRANCE 1650 58 55 180/ 12/ 14 1026.8 2/ 3 4S FIRE IS 1603 54 N/A 2/ 5 20S FIRE ISLAND 1650 57 55 210/ 14/ 16 1027.5 2/ 3 GREAT SOUTH BAY 1600 59 63 230/ 14/ 17 N/A 23SW MTP 1650 55 53 230/ 16/ 17 1027.0 3/ 5 HUDSON CANYON NOT AVBL KINGS POINT 1600 70 65 270/ 6/ 8 1026.3 CENTRAL LI SOUND 1615 59 52 260/ 12/ 12 N/A EASTERN LI SOUND 1600 56 250/ 8/ 12 N/A ROBBINS REEF 1600 72 260/ 10/ 13 1025.8 $$ >>>>>>>>>>>>>>>>>>>>>>>>>>>> KEY <<<<<<<<<<<<<<<<<<<<<<<<<<< > < > SKY/WX - SKY CONDITION/PRESENT WEATHER < > TMP - TEMPERATURE IN FAHRENHEIT < > DP - DEWPOINT IN FAHRENHEIT < > RH - RELATIVE HUMIDITY IN PERCENT < > WIND - DIRECTION AND SPEED IN MPH < > PRES - MEAN SEA LEVEL PRESSURE IN INCHES OF HG < > WCI - WIND CHILL INDEX < > VSB - VISIBILITY IN MILES < > HX - HEAT INDEX < > TC - TEMPERATURE IN CELSIUS < > VRB - VARIABLE WIND DIRECTION < > < >>>>>>>>>>>>>>>>>>>>>>>>>>>> KEY <<<<<<<<<<<<<<<<<<<<<<<<<<<

USA.gov is the U.S. government's official web portal to all federal, state and local government web resources and services.